Flag for U.S.A. Weather past 2 weeks in Pensacola, Florida, U.S.A.

Now
70 °F

Clear.


Feels Like: 65 °F
Forecast: 72 / 86 °F
Wind: 8 mph from South

Location: Pensacola Regional Airport

Current Time: Apr 25, 2015 at 10:53:37 PM

Latest Report: Apr 25, 2015 at 9:53 PM


Visibility: 10 mi

Pressure: 29.73 "Hg

Humidity: 93%

Dew point: 68 °F

Location of PensacolaLocation

Historic Weather in Pensacola — Graph

°F

Pensacola temperature yesterday

Maximum temperature yesterday: 80 °F (at 1:53 PM)
Minimum temperature yesterday: 65 °F (at 5:53 AM)
Average temperature yesterday: 72 °F

Past Weeks' High & Low Weather Summary

 TemperatureHumidityPressure
High84 °F (Apr 25, 12:53 PM)100% (Apr 10, 8:53 PM)30.11 "Hg (Apr 10, 8:53 PM)
Low58 °F (Apr 21, 4:53 AM)32% (Apr 21, 2:53 PM)29.70 "Hg (Apr 25, 6:53 PM)
Average72 °F85%29.97 "Hg
* Reported Apr 10 8:53 PM — Apr 25 8:53 PM, Pensacola, Weather by CustomWeather, © 2015

Note: Actual official high and low records may vary slightly from our data, if they occured in-between our weather recording intervals... More about our weather records

Advertising

Pensacola weather history for previous 24 hours

 ConditionsComfort  
Time TempWeatherWind HumidityBarometerVisibility
8:53 PM
Sat, Apr 25
70 °FClear.3 mph93%29.72 "Hg10 mi
7:53 PM70 °FClear.6 mph90%29.71 "Hg10 mi
6:53 PM70 °FScattered clouds.9 mph90%29.70 "Hg10 mi
5:53 PM70 °FPassing clouds.7 mph90%29.71 "Hg10 mi
4:53 PM70 °FPassing clouds.15 mph87%29.78 "Hg10 mi
4:00 PM76 °FThunderstorms. Mostly cloudy.17 mph91%29.79 "Hg10 mi
2:53 PM82 °FScattered clouds.16 mph74%29.76 "Hg10 mi
1:53 PM84 °FPartly sunny.17 mph70%29.78 "Hg10 mi
12:53 PM84 °FPartly sunny.17 mph70%29.80 "Hg10 mi
11:53 AM82 °FOvercast.16 mph74%29.81 "Hg10 mi
10:53 AM80 °FOvercast.17 mph81%29.81 "Hg10 mi
9:53 AM80 °FMostly cloudy.15 mph81%29.82 "Hg10 mi
8:53 AM78 °FMostly cloudy.15 mph87%29.84 "Hg10 mi
7:53 AM77 °FOvercast.12 mph90%29.83 "Hg10 mi
6:53 AM76 °FMostly cloudy.12 mph94%29.84 "Hg9 mi
5:53 AM75 °FMostly cloudy.9 mph94%29.84 "Hg8 mi
4:53 AM75 °FMostly cloudy.6 mph96%29.84 "Hg10 mi
3:53 AM74 °FLow clouds.12 mph97%29.82 "Hg9 mi
2:53 AM74 °FLow clouds.12 mph97%29.82 "Hg10 mi
1:53 AM74 °FLight rain. Mostly cloudy.14 mph97%29.83 "Hg9 mi
12:53 AM74 °FLow clouds.13 mph94%29.84 "Hg10 mi
11:53 PM
Fri, Apr 24
74 °FOvercast.13 mph94%29.87 "Hg10 mi
10:53 PM73 °FPartly cloudy.14 mph94%29.86 "Hg10 mi
Weather by CustomWeather, © 2015

See weather overviewHow to use our weather pages